Total_Precipitation_Accumulation
0.81 0.85 1.18 1.20 1.19 1.23 1.29 1.33 1.37 1.47 1.60 1.87 2.04 2.17 2.26 2.40 2.35 2.27 2.34 2.53 2.81 2.91 2.91 2.90 2.64 2.43 2.19 2.08 1.91 1.63 1.46 1.44 1.43 1.39 1.43 1.52 1.64 1.85 2.20 2.34 2.21 1.67 1.61
0.52 0.67 1.00 1.09 1.17 1.20 1.13 1.16 1.29 1.40 1.51 1.70 1.93 2.15 2.15 2.24 2.16 2.09 2.16 2.41 2.65 2.65 2.62 2.53 2.28 2.10 1.89 1.75 1.57 1.33 1.31 1.42 1.64 1.72 1.75 1.62 1.75 2.01 2.20 2.07 2.24 1.72 1.52
0.45 0.57 0.76 0.97 1.05 1.06 1.01 1.14 1.28 1.30 1.41 1.59 1.79 2.04 2.04 2.08 2.12 2.03 2.06 2.24 2.38 2.39 2.29 2.15 1.97 1.79 1.58 1.40 1.20 1.12 1.20 1.46 1.84 2.09 2.13 1.58 1.31 1.73 1.91 1.76 1.65 1.49 1.41
0.46 0.54 0.67 0.79 0.88 0.95 0.99 1.14 1.29 1.35 1.43 1.53 1.60 1.78 1.86 1.96 2.05 2.11 2.12 2.05 2.07 2.02 1.97 1.90 1.70 1.55 1.38 1.17 1.07 1.12 1.27 1.47 1.82 2.24 2.20 1.44 0.96 1.20 1.40 1.35 1.42 1.25 1.19
0.48 0.55 0.70 0.71 0.80 0.92 1.00 1.18 1.25 1.32 1.45 1.47 1.50 1.60 1.72 1.82 1.91 2.06 2.03 1.90 1.86 1.88 1.86 1.76 1.61 1.43 1.21 1.05 1.03 1.14 1.34 1.54 1.89 2.01 1.57 1.42 1.27 1.18 1.15 1.19 1.22 1.04 0.89
0.45 0.50 0.70 0.74 0.76 0.87 1.02 1.12 1.13 1.19 1.31 1.37 1.46 1.52 1.60 1.65 1.72 1.88 1.80 1.75 1.74 1.76 1.72 1.70 1.53 1.27 1.07 0.97 0.99 1.12 1.33 1.63 1.69 1.19 1.10 1.20 1.12 1.12 1.07 1.33 1.20 0.95 0.82
0.51 0.53 0.67 0.78 0.81 0.87 0.92 0.99 1.03 1.08 1.20 1.28 1.45 1.55 1.56 1.53 1.60 1.67 1.62 1.59 1.64 1.60 1.48 1.45 1.31 1.14 1.05 1.00 1.02 1.10 1.32 1.68 1.33 0.93 1.08 1.36 1.19 1.04 1.06 1.41 1.28 0.97 0.80
0.58 0.53 0.59 0.79 0.85 0.87 0.90 0.92 1.00 1.07 1.18 1.25 1.28 1.37 1.34 1.30 1.36 1.41 1.51 1.55 1.52 1.39 1.31 1.31 1.17 1.08 1.01 0.99 1.01 1.09 1.28 1.38 0.90 0.89 1.02 1.13 0.99 1.01 1.08 1.32 1.30 1.10 0.91
0.62 0.62 0.62 0.66 0.71 0.83 1.02 1.07 1.04 1.04 1.13 1.20 1.16 1.22 1.24 1.27 1.30 1.33 1.39 1.40 1.37 1.26 1.22 1.22 1.05 0.94 0.85 0.87 0.90 1.01 1.25 1.35 1.03 1.02 0.96 0.94 0.81 0.89 1.11 1.23 1.17 1.13 1.02
0.80 0.76 0.78 0.77 0.73 0.73 0.86 1.04 1.05 1.04 1.10 1.11 1.17 1.26 1.34 1.40 1.37 1.36 1.18 1.20 1.24 1.22 1.24 1.23 1.11 0.93 0.88 0.95 1.03 1.17 1.31 1.07 1.09 1.04 1.14 1.07 0.93 1.04 1.30 1.36 1.24 1.16 1.11
1.09 1.00 0.96 0.85 0.78 0.80 0.78 0.87 1.00 1.05 1.12 1.21 1.32 1.40 1.59 1.74 1.66 1.68 1.43 1.50 1.46 1.41 1.44 1.49 1.36 1.15 1.03 1.03 1.26 1.52 1.25 0.96 1.18 1.22 1.25 1.18 1.13 1.35 1.60 1.59 1.49 1.37 1.23
1.38 1.08 1.05 0.94 0.90 0.88 0.77 0.89 1.13 1.09 1.21 1.40 1.58 1.67 1.97 2.18 2.15 1.75 1.95 2.09 2.00 1.99 1.91 1.91 1.97 1.64 1.29 1.26 1.79 2.10 1.24 1.02 1.06 1.14 1.16 1.16 1.45 1.75 1.95 1.79 1.62 1.55 1.44
1.36 1.37 1.33 1.18 1.16 1.14 1.20 1.09 1.24 1.41 1.63 1.64 1.62 1.87 2.27 2.14 1.99 1.89 2.05 2.45 2.54 2.56 2.48 2.47 2.46 2.05 1.92 2.10 2.26 2.02 1.46 1.37 1.35 1.41 1.41 1.58 1.92 2.20 2.25 1.99 1.82 1.75 1.69
1.68 1.92 2.00 1.72 1.75 1.64 1.47 1.38 1.35 1.45 1.66 1.82 2.08 2.22 2.35 2.46 2.42 2.31 2.37 2.54 2.65 2.79 3.19 3.03 2.87 2.60 2.50 2.35 2.26 2.01 1.78 1.79 1.82 1.96 2.14 1.91 2.03 2.33 2.47 2.30 2.15 2.05 1.99
2.40 2.65 2.83 2.41 2.31 2.18 2.18 2.11 1.82 1.92 2.04 2.19 2.42 2.63 2.64 2.81 2.87 2.88 2.78 2.71 2.50 2.55 2.89 3.14 2.97 2.95 2.86 2.65 2.39 2.18 2.05 1.98 1.91 2.07 2.20 2.32 2.31 2.34 2.58 2.76 2.62 2.37 2.28
2.93 3.10 3.25 3.14 3.14 2.98 2.73 2.76 2.72 2.37 2.46 2.49 2.58 2.65 2.76 2.94 3.28 3.42 3.29 3.14 2.74 2.62 2.68 2.94 2.98 3.19 3.12 2.94 2.36 2.24 2.20 2.18 2.21 2.15 2.31 2.80 2.81 2.44 2.49 2.82 2.98 2.92 2.79
3.78 3.70 3.76 3.73 3.99 3.89 3.46 3.13 2.84 2.66 2.64 2.85 2.91 2.96 2.99 3.17 3.50 3.47 3.29 2.94 2.61 2.58 2.78 2.78 2.76 3.00 2.84 2.72 2.60 2.62 2.57 2.46 2.34 2.30 2.41 2.88 2.85 2.47 2.35 2.45 2.76 3.00 3.12
4.59 4.52 4.34 3.93 4.32 4.35 4.05 3.82 3.45 3.18 3.25 3.25 2.98 3.10 3.02 3.15 3.06 3.11 2.82 2.50 2.51 2.65 2.79 2.97 2.85 2.91 2.94 3.02 3.08 3.02 2.83 2.69 2.27 2.10 2.02 2.16 2.44 2.14 2.29 2.52 2.60 2.69 3.12
5.01 5.24 5.23 5.14 4.89 4.63 4.44 4.30 4.11 3.93 3.64 3.29 3.14 3.20 2.90 2.59 2.38 2.58 2.52 2.44 2.41 2.61 2.66 2.46 2.86 3.09 3.09 3.11 2.86 2.91 2.52 2.39 2.16 1.87 1.84 1.80 1.95 2.10 2.14 2.19 2.32 2.38 2.85
4.97 5.53 5.73 5.81 5.48 4.98 4.52 4.19 4.13 3.89 3.65 3.38 3.16 3.12 2.70 2.45 2.21 2.46 2.44 2.38 2.37 2.55 2.66 2.77 3.06 3.18 2.87 2.80 2.51 2.43 2.13 1.75 1.72 1.69 1.57 1.62 1.76 1.75 1.91 2.08 2.33 2.16 2.63
4.53 5.25 5.38 5.70 5.19 4.55 4.07 3.71 3.60 3.43 3.13 3.02 2.91 2.85 2.70 2.43 2.34 2.59 2.44 2.50 2.32 2.39 2.40 2.48 2.74 2.87 2.49 2.57 3.05 2.65 2.03 1.62 1.62 1.52 1.52 1.61 1.63 1.72 1.98 2.29 2.48 2.54 2.57
3.91 4.63 4.69 4.41 4.22 3.80 3.46 3.31 3.14 3.10 2.78 2.62 2.50 2.59 2.37 2.20 2.26 2.30 2.42 2.26 2.20 2.35 2.33 2.37 2.60 2.59 2.28 2.48 3.00 3.14 2.59 2.19 1.84 1.45 1.44 1.50 1.64 1.87 1.99 2.05 2.46 2.76 2.75
3.57 3.66 3.30 3.15 3.26 3.23 3.08 2.97 2.84 2.86 2.68 2.44 2.30 2.31 2.12 1.93 1.97 2.01 2.00 2.07 2.17 1.96 2.12 2.31 2.45 2.53 2.43 2.36 2.63 3.09 2.91 2.57 2.19 1.77 1.60 1.70 1.91 2.07 2.12 2.26 2.35 2.58 2.79
2.71 2.64 2.62 2.60 2.67 2.88 2.88 2.66 2.50 2.25 2.19 2.15 2.07 2.08 2.07 1.82 1.75 1.78 1.79 1.96 2.03 1.96 2.22 1.93 2.05 2.33 2.55 2.38 2.40 2.44 2.52 2.76 2.75 2.32 1.95 1.80 1.89 2.01 2.08 2.09 2.18 2.45 2.71
2.04 2.12 2.12 2.42 2.55 2.57 2.55 2.51 2.57 2.32 2.17 2.13 2.26 2.46 2.38 2.05 1.72 1.55 1.66 1.85 1.97 2.02 2.10 2.03 2.14 2.09 2.17 2.23 2.32 2.33 2.47 2.72 2.57 2.49 2.32 2.09 1.95 1.77 1.81 1.94 2.14 2.39 2.54
1.36 1.51 1.65 1.96 2.20 2.26 2.21 2.21 2.29 2.34 2.33 2.16 2.13 2.21 2.13 1.98 1.79 1.60 1.62 1.85 1.94 2.01 2.04 2.08 2.06 1.96 2.04 2.17 2.21 2.24 2.45 2.50 2.45 2.55 2.40 2.23 2.08 1.80 1.75 1.83 2.02 2.18 2.27